Regional Weather Roundup
Issued by NWS Grand Forks, ND

Home | Current Version | Previous Version | Graphics & Text | Print | Product List | Glossary On
Versions: 1 2 3 4 5 6 7 8 9 10 11 12 13 14 15 16 17 18 19 20 21 22 23 24 25 26 27 28 29 30 31 32 33 34 35 36 37 38 39 40 41 42 43 44 45 46 47 48 49 50
017
ASUS43 KFGF 291931
RWRFGF
PRAIRIE TO PINES  WEATHER ROUNDUP
NATIONAL WEATHER SERVICE EASTERN NORTH DAKOTA/GRAND FORKS ND
200 PM CDT FRI JUL 29 2016

 **SATELLITE DATA USED TO AUGMENT SKY COVER AT AUTOMATED STATIONS**
 *****  WEATHER ACROSS EASTERN NORTH DAKOTA  *****

CITY           SKY/WX    TMP DP  RH WIND       PRES   REMARKS
GRAND FORKS    PTSUNNY   78  52  40 CALM      30.06S
GRAND FRKS AFB CLOUDY    76  55  47 VRB2      30.07S
DEVILS LAKE    MOSUNNY   74  59  59 VRB6      30.08F
FARGO          MOSUNNY   79  57  46 MISG      30.06F
WAHPETON ARPT  PTCLDY    79  55  44 NW5       30.06F
$$

 ***** WEATHER ACROSS CENTRAL AND WESTERN NORTH DAKOTA  *****

CITY           SKY/WX    TMP DP  RH WIND       PRES   REMARKS
BISMARCK       PTSUNNY   79  59  50 CALM      30.06F
MINOT          LGT RAIN  73  63  70 SE12      30.04F
JAMESTOWN      MOSUNNY   77  62  59 SE12      30.07F
MINOT AFB      PTSUNNY   75  60  58 SE8       30.03F
GARRISON         N/A     75  61  61 SW7       30.06F
WILLISTON      MOSUNNY   80  50  34 S6        30.05F
DICKINSON      MOSUNNY   72  56  57 S8        30.06F
HETTINGER      MOSUNNY   77  55  46 S9        30.08F
$$

 *****  OTHER AIRPORT OBSERVATIONS IN OUR AREA  *****

CITY           SKY/WX    TMP DP  RH WIND       PRES   REMARKS
WALHALLA       FAIR      75  72  88 SE3       30.06S
GRAFTON AIRPOR FAIR      75  54  46 S3        30.08S
VALLEY CITY AR MOCLDY    75  61  60 S5        30.10S
CANDO          FAIR      75  59  57 SE6       30.09F
CAVALIER APRT  FAIR      75  50  41 S6        30.06F
GWINNER        MOCLDY    79  63  57 SW5       30.08F
SHEYENNE NWR     N/A     79  58  48 NE3       29.95S
ROLLA            N/A     73  52  46 CALM      30.08F
 ***** THE ABOVE OBSERVATIONS ARE NON NWS ARE NOT QUALITY
       CONTROLLED AND MAY MIS-REPORT RAIN FOR SNOW...
$$

  *****  WEATHER ACROSS NORTHERN MINNESOTA  *****

CITY           SKY/WX    TMP DP  RH WIND       PRES   REMARKS
FLAG ISLAND    SUNNY     75  52  43 SE6       30.06F
WARROAD        SUNNY     75  61  60 MISG      30.07F
ROSEAU         SUNNY     79  59  50 CALM      30.06F
HALLOCK        MOSUNNY   75  55  50 CALM      30.06S
THF RVR FALLS  CLOUDY    75  53  46 S5        30.08F
BAUDETTE       MOSUNNY   79  55  43 SE5       30.07F
WASKISH        CLOUDY    73  61  64 W7        30.07F
CROOKSTON      MOSUNNY   75  54  46 CALM      30.07F
STEPHEN NDAWN    N/A     75  57  53 SE3         N/A
GREENBUSH NDAW   N/A     79  54  41 SE3         N/A
$$
  *****  WEATHER ACROSS CENTRAL AND WEST MINNESOTA  *****

CITY           SKY/WX    TMP DP  RH WIND       PRES   REMARKS
FOSSTON        SUNNY     77  55  47 CALM      30.08F
BEMIDJI        MOSUNNY   75  55  51 E5        30.07F
PARK RAPIDS    PTSUNNY   77  56  48 VRB7      30.08F
ELBOW LAKE     FAIR      76  62  61 SW5       30.08F
WADENA         MOSUNNY   75  59  57 S6        30.08F
DETROIT LAKES  CLOUDY    77  59  53 N9        30.08F
MOORHEAD       MOSUNNY   79  59  50 N3        30.06F
FERGUS FALLS   CLOUDY    75  64  69 S9        30.07F
MORRIS MN      PTSUNNY   77  57  50 SE5       30.07F
STAPLES        SUNNY     77  54  44 SW8       30.08F
$$
  *****  WEATHER ELSEWHERE ACROSS MINNESOTA  *****

CITY           SKY/WX    TMP DP  RH WIND       PRES   REMARKS
DULUTH         MOSUNNY   71  49  45 VRB7      30.13R
INTRNTL FALLS  CLOUDY    75  57  53 CALM      30.08F
ELY            CLOUDY    73  52  46 CALM      30.10S
CLOQUET        SUNNY     72  43  35 E9        30.12S
WHEATON        MOSUNNY   79  64  61 S6        30.08F
BRAINERD       SUNNY     74  53  48 VRB6      30.11S
HIBBING        PTSUNNY   74  51  44 E6        30.11S
ALEXANDRIA     PTSUNNY   75  54  47 VRB6      30.11F
SAINT CLOUD    SUNNY     76  53  44 VRB5      30.09F
MINNEAPOLIS    MOSUNNY   76  48  37 NE7       30.07S
$$

  *****  WEATHER ACROSS SOUTH DAKOTA  *****

CITY           SKY/WX    TMP DP  RH WIND       PRES   REMARKS
SIOUX FALLS    MOSUNNY   77  56  48 NE6       30.08F
BROOKINGS      MOSUNNY   75  53  46 NE7       30.10F
WATERTOWN      CLOUDY    77  55  46 S7        30.09F
HURON          MOSUNNY   80  55  42 MISG      30.07F
SISSETON         N/A     75  58  55 SW9       30.07F
ABERDEEN       NOT AVBL
MITCHELL       SUNNY     80  55  42 E8        30.08F
PIERRE         MOSUNNY   80  56  43 S12G18    30.05F
MOBRIDGE       CLOUDY    77  60  55 S3        30.04F
RAPID CITY     PTSUNNY   78  55  44 VRB7      30.08F
$$

  *****  SOME WEATHER IN NEARBY STATES *****

CITY           SKY/WX    TMP DP  RH WIND       PRES   REMARKS
GLASGOW MT     PTSUNNY   77  55  46 S9        30.02F
GREAT FALLS MT SUNNY     79  50  36 VRB3      30.08F
CHEYENNE WY    MOSUNNY   76  55  48 S16G29    30.21F
SCOTTSBLUFF NE SUNNY     82  59  45 E13       30.11F
OMAHA NE       MOSUNNY   80  61  52 N8        30.03F
DES MOINES IA  CLOUDY    70  63  78 NW8       30.01S
DAVENPORT IA   CLOUDY    75  68  78 VRB7      29.95S
CHICAGO IL     CLOUDY    76  68  76 NE13      29.89F
EAU CLAIRE WI  SUNNY     76  55  48 VRB3      30.04F
LA CROSSE WI   CLOUDY    76  63  64 NE3       30.01F
$$

  *****  SOME NATIONAL WEATHER *****

CITY           SKY/WX    TMP DP  RH WIND       PRES   REMARKS
LA GUARDIA NY  FAIR      81  69  67 NE9       29.83S
RALEIGH NC     PTSUNNY   88  68  51 W5        29.93R HX  91
ATLANTA GA     PTSUNNY   91  69  48 W9        30.01F HX  96
NEW ORLEANS LA CLOUDY    92  76  59 E8        30.02F HX 104
OKLAHOMA CITY  CLOUDY    82  71  69 NE6       29.99R
ALBUQUERQUE NM MOSUNNY   90  50  25 SW16G28   30.15F
SALT LAKE CITY MOSUNNY   97  32  10 N9        30.03F HX  91
LOS ANGELES CA SUNNY     77  65  66 W10       29.85S
BOISE ID       SUNNY     91  46  21 W9        29.97F
SEATTLE WA     SUNNY     79  61  53 NW9       30.01F
$$

*** WEATHER ACROSS MANITOBA...SASKATCHEWAN AND ONTARIO ***
                ***ONTARIO***

CITY           SKY/WX    TMP DP  RH WIND       PRES   REMARKS
GERALDTON      MOSUNNY   75  48  38 W6        30.08F
THUNDER BAY    MOSUNNY   77  55  47 S10       30.07F
SIOUX LOOKOUT  PTSUNNY   75  50  41 S6        30.08F
TORONTO        PTSUNNY   81  59  47 SE7       29.97S
BIG TROUT LK   PTSUNNY   72  57  60 S6        30.00F
PICKLE LAKE    MOSUNNY   79  46  31 VRB2      30.04S
DRYDEN         MOSUNNY   77  48  36 VRB9      30.08F
KENORA         PTSUNNY   75  52  43 W8        30.09S
$$
                *** MANITOBA***

CITY           SKY/WX    TMP DP  RH WIND       PRES   REMARKS
BRANDON        MOSUNNY   77  52  41 SW6       30.04F
DAUPHIN        SUNNY     81  59  47 W9        29.99F
ISLAND LAKE    PTSUNNY   81  63  54 VRB2      29.95F
PILOT MOUND      N/A     73  54  49 S6          N/A
THE PAS        LGT RAIN  70  61  73 SW8       29.93F
THOMPSON       PTSUNNY   70  61  73 NE7       29.94F
WINNIPEG       MOSUNNY   77  59  53 S5        30.05F
LYNN LAKE      LGT RAIN  64  61  88 MISG      29.93S
CHURCHILL      PTSUNNY   63  46  55 NE9       30.04F
GILLAM         PTSUNNY   70  52  52 SE9       30.01F
$$
                ***SASKATCHEWAN***

CITY           SKY/WX    TMP DP  RH WIND       PRES   REMARKS
ESTEVAN        CLOUDY    75  52  43 SW6       30.04F
KINDERSLEY     MOSUNNY   73  59  60 NW3       30.00S
LLOYDMINSTER   MOSUNNY   75  57  53 W6        29.96F
PRINCE ALBERT  LGT RAIN  68  61  77 NW2       29.94F
REGINA         PTSUNNY   77  64  65 W10       29.99F
YORKTON        SUNNY     77  54  44 S9        30.00F
N. BATTLEFORD  PTSUNNY   75  57  53 VRB6      29.97F
LA RONGE       PTSUNNY   72  63  73 S6        29.88F
SASKATOON      PTSUNNY   72  63  73 W6        29.99F
SWIFT CURRENT  PTSUNNY   72  61  68 W8        30.02F
$$
NOTE: THESE ARE AUTOMATED STATIONS WITH LIMITED QUALITY CONTROL
      "FAIR" INDICATES FEW OR NO CLOUDS BELOW 12,000 FEET WITH NO
      SIGNIFICANT WEATHER AND/OR OBSTRUCTIONS TO VISIBILITY.
      SKY/WX - SKY CONDITION AND SIGNIFICANT WEATHER.
      TMP - AIR TEMPERATURE.    DP   - DEWPOINT TEMPERATURE.
      RH  - RELATIVE HUMIDITY.  PRES - PRESSURE.
      HX  - HEAT INDEX.         WCI  - WIND CHILL INDEX.
$




USA.gov is the U.S. government's official web portal to all federal, state and local government web resources and services.